#timestamp,LO_Frequency,Hit 
1500361215.7,286046966.9,N
1500361235.5,286046966.9,N
1500361255.3,286046966.6,N
1500361275.2,286046968.7,N
1500361295.0,286046969.1,N
1500361295.9,286046969.1,N
1500361315.7,286046968.5,N
1500361335.6,286046968.4,N
1500361355.4,286046970.7,N
1500361375.3,286046967.7,N
1500361395.1,286046969.9,N
1500361396.0,286046969.9,N
1500361415.8,286046970.1,N
1500361435.7,286046970.2,N
1500361455.5,286046970.3,N
1500361475.3,286046968.4,N
1500361495.2,286046970.6,N
1500361515.0,286046970.0,N
1500361515.9,286046970.0,N
1500361535.8,286046969.7,N
1500361555.6,286046969.4,N
1500361575.4,286046969.6,N
1500361595.3,286046970.4,N
1500361615.1,286046970.8,N
1500361635.8,286046969.9,N
1500361655.7,286046969.6,N
1500361675.5,286046969.4,N
1500361695.4,286046970.1,N
1500361715.2,286046970.6,N
1500361735.0,286046970.1,N
1500361735.9,286046970.1,N
1500361755.8,286046968.5,N
1500361775.6,286046968.6,N
1500361795.4,286046968.1,N
1500361815.3,286046969.9,N
1500361835.1,286046970.0,N
1500361855.9,286046970.2,N
1500361875.7,286046970.1,N
1500361895.5,286046969.5,N
1500361915.4,286046969.7,N
1500361935.2,286046969.5,N
1500361955.1,286046971.7,N
1500361956.0,286046971.7,N
1500361975.8,286046969.9,N
1500361995.6,286046969.5,N
1500362015.5,286046969.5,N
1500362035.3,286046969.9,N
1500362055.1,286046970.0,N
1500362075.9,286046970.6,N
1500362095.7,286046970.5,N
1500362115.6,286046970.6,N
1500362135.4,286046969.8,N
1500362155.2,286046969.6,N
1500362175.1,286046970.1,N
1500362176.0,286046970.1,N
1500362195.8,286046969.0,N
1500362215.7,286046970.0,N
1500362235.5,286046970.1,N
1500362255.3,286046970.2,N
1500362275.2,286046969.5,N
1500362295.9,286046971.9,N
1500362315.7,286046971.6,N
1500362335.6,286046972.4,N
1500362355.4,286046969.3,N
1500362375.2,286046969.3,N
1500362395.1,286046972.0,N
1500362396.0,286046972.0,N
1500362415.8,286046971.9,N
1500362435.7,286046972.0,N
1500362455.5,286046969.4,N
1500362475.3,286046971.2,N
1500362495.2,286046969.7,N
1500362515.0,286046970.4,N
1500362515.9,286046970.4,N
1500362535.8,286046970.5,N
1500362555.6,286046970.7,N
1500362575.4,286046967.8,N
1500362595.3,286046968.1,N
1500362615.1,286046967.8,N
1500362635.8,286046967.7,N
1500362655.7,286046968.4,N
1500362675.5,286046968.6,N
1500362695.4,286046968.4,N
1500362715.2,286046969.0,N
1500362735.0,286046967.7,N
1500362735.9,286046967.7,N
1500362755.8,286046968.2,N
1500362775.6,286046967.9,N
1500362795.4,286046968.8,N
1500362815.3,286046966.7,N
1500362835.1,286046966.6,N
1500362855.9,286046968.8,N
1500362875.7,286046969.1,N
1500362895.5,286046969.1,N
1500362915.4,286046969.2,N
1500362935.2,286046966.6,N
1500362955.0,286046967.4,N
1500362955.9,286046967.4,N
1500362975.8,286046966.5,N
1500362995.6,286046967.3,N
1500363015.5,286046967.3,N
1500363035.3,286046967.0,N
1500363055.1,286046964.7,N
1500363075.9,286046967.1,N
1500363095.7,286046963.4,N
1500363115.5,286046962.9,N
1500363135.4,286046965.3,N
1500363155.2,286046965.9,N
1500363175.1,286046965.8,N
1500363176.0,286046965.8,N
1500363195.8,286046963.1,N
1500363215.6,286046963.3,N
1500363265.5,286046965.5,Y
1500363275.4,286046980.1,N
1500363295.3,286046996.9,N
1500363315.1,286046996.6,N
1500363335.8,286046999.1,N
1500363355.7,286046999.4,N
1500363375.5,286046997.1,N
1500363395.4,286046996.7,N
1500363415.2,286046997.7,N
1500363435.0,286046998.0,N
1500363435.9,286046998.0,N
1500363455.8,286046995.6,N
1500363475.6,286046996.1,N
1500363495.4,286046996.1,N
1500363515.3,286046995.5,N
1500363535.1,286046996.0,N
1500363555.9,286046996.4,N
1500363575.7,286046993.3,N
1500363595.5,286046993.8,N
1500363615.4,286046993.8,N
1500363635.2,286046994.8,N
1500363655.0,286046994.4,N
1500363656.0,286046994.4,N
1500363675.8,286046992.2,N
1500363695.6,286046992.3,N
1500363715.5,286046993.0,N
1500363735.3,286046991.9,N
1500363755.1,286046991.9,N
1500363775.9,286046992.7,N
1500363795.7,286046993.1,N
1500363815.5,286046990.1,N
1500363835.4,286046990.9,N
1500363855.2,286046990.8,N
1500363875.1,286046990.1,N
1500363876.0,286046990.1,N
1500363895.8,286046993.2,N
1500363915.6,286046990.2,N
1500363935.5,286046992.5,N
1500363955.3,286046990.1,N
1500363975.1,286046993.1,N
1500363995.9,286046990.4,N
1500364015.7,286046990.6,N
1500364035.6,286046990.4,N
1500364055.4,286046991.3,N
1500364075.2,286046991.0,N
1500364095.1,286046991.0,N
1500364096.0,286046991.0,N
1500364115.8,286046991.0,N
1500364135.6,286046991.6,N
1500364155.5,286046989.1,N
1500364175.3,286046989.3,N
1500364195.2,286046988.8,N
1500364215.9,286046989.4,N
1500364235.7,286046989.0,N
1500364255.6,286046989.0,N
1500364275.4,286046988.6,N
1500364295.2,286046989.7,N
1500364315.1,286046987.3,N
1500364316.0,286046987.3,N
1500364335.8,286046987.3,N
1500364355.7,286046986.9,N
1500364375.5,286046988.9,N
1500364395.3,286046989.4,N
1500364415.2,286046988.7,N
1500364435.0,286046989.0,N
1500364435.9,286046989.0,N
1500364455.8,286046989.2,N
1500364475.6,286046987.4,N
1500364495.4,286046987.1,N
1500364515.3,286046987.2,N
1500364535.1,286046988.2,N
1500364555.8,286046987.8,N
1500364575.7,286046987.9,N
1500364595.5,286046986.2,N
1500364615.4,286046984.3,N
1500364635.2,286046986.8,N
1500364655.0,286046984.0,N
1500364655.9,286046984.0,N
1500364675.8,286046984.2,N
1500364695.6,286046984.6,N
1500364715.4,286046984.8,N
1500364735.3,286046984.9,N
1500364755.1,286046984.8,N
1500364775.9,286046983.9,N
1500364795.7,286046982.2,N
